Location: Newark
(15.4608°S, 41.1635°W)
Time: 15:58:50
(UTC+00:00)

Explorer 11/Cluster Stage 4 - Visible Passes

Search period start: 26 February 2021 00:00
Search period end: 08 March 2021 00:00
Orbit: 467 x 1257 km, 28.8° (Epoch: 25 February)

Date Brightness Start Highest point End Pass type
(mag) Time Alt. Az. Time Alt. Az. Time Alt. Az.
26 Feb 8.2 21:31:32 10° SW 21:33:07 12° S 21:34:40 10° SSE visible
27 Feb 8.5 23:10:01 10° SSW 23:10:10 10° SSW 23:10:10 10° SSW visible
28 Feb 8.3 22:59:02 10° SSW 22:59:52 12° S 22:59:52 12° S visible
01 Mar 8.0 22:48:01 10° SSW 22:49:34 14° S 22:49:34 14° S visible
02 Mar 7.7 22:36:58 10° SSW 22:39:17 17° S 22:39:17 17° S visible
03 Mar 7.4 22:25:54 10° SSW 22:28:43 19° SSE 22:29:02 19° SSE visible
04 Mar 7.1 22:14:50 10° SW 22:18:00 23° SSE 22:18:49 21° SE visible
05 Mar 7.0 22:03:45 10° SW 22:07:14 28° SSE 22:08:37 22° SE visible
06 Mar 6.7 21:52:39 10° SW 21:56:28 34° SSE 21:58:29 20° ESE visible
07 Mar 6.4 21:41:33 10° SW 21:45:42 42° SSE 21:48:24 16° E visible
07 Mar 9.0 23:30:31 10° W 23:30:32 10° W 23:30:32 10° W visible
